Regional Weather Roundup
Issued by NWS Kansas City/Pleasant Hill, MO

Home | Current Version | Previous Version | Text Only | Print | Product List | Glossary On
Versions: 1 2 3 4 5 6 7 8 9 10 11 12 13 14 15 16 17 18 19 20 21 22 23 24 25 26 27 28
000
ASUS43 KEAX 210810
RWREAX

WEATHER ROUNDUP FOR EASTERN KANSAS AND NORTHWEST MISSOURI
NATIONAL WEATHER SERVICE KANSAS CITY/PLEASANT HILL MO
300 AM CDT SAT OCT 21 2017

KSZ040-057-103>105-MOZ028-029-037-043-210900-
...KANSAS CITY METROPOLITAN AREA...

CITY           SKY/WX    TMP DP  RH WIND       PRES   REMARKS
K.C. INTL      CLEAR     63  57  81 S20G29    29.82F
K.C. DOWNTOWN  CLEAR     66  58  75 S10G22    29.85S
LEES SUMMIT    CLEAR     63  57  81 S20G31    29.86F
OLATHE - IXD   CLEAR     62  57  83 S18       29.85F
OLATHE - OJC   CLEAR     61  57  87 S15       29.86S
LAWRENCE       MOCLDY    65  59  81 SE17G30   29.82S

$$

MOZ001>008-011>017-020>025-030>033-038>040-044>046-053-054-210900-
...NORTHERN AND CENTRAL MISSOURI...

CITY           SKY/WX    TMP DP  RH WIND       PRES   REMARKS
ST. JOSEPH     LGT RAIN  66  60  81 S17G29    29.79F
MOSBY          MOSUNNY   64  55  72 S14G21    29.85F
WARRENSBURG    CLEAR     63  55  77 SE10G18   29.90S
WHITEMAN AFB   CLEAR     63  57  81 S14       29.87F
CLINTON        CLEAR     64  57  77 S13       29.93F
SEDALIA        PTCLDY    65  58  78 S18       29.94S
WARSAW         NOT AVBL
CHILLICOTHE      N/A     65  58  78 S12G20    29.88F
KIRKSVILLE     CLOUDY    64  57  78 S15       29.93S

$$

MOZ041-047>049-056>058-063>065-088>090-097-210900-
...EASTERN AND SOUTHERN MISSOURI...

CITY           SKY/WX    TMP DP  RH WIND       PRES   REMARKS
ST. LOUIS INTL CLOUDY    64  52  64 SE8       30.04S
SPIRIT OF STL  CLOUDY    67  52  58 CALM      30.03R
COLUMBIA       CLOUDY    62  56  80 S12       29.97F
JEFFERSON CITY CLOUDY    63  54  72 E8        29.98F
ROLLA          MOCLDY    63  53  70 S13       30.02R
OSAGE BEACH    CLOUDY    64  55  72 S9G16     29.99S
SPRINGFIELD    PTCLDY    63  58  83 S16       29.97S
BRANSON        PTCLDY    61  55  82 CALM      30.02S
WEST PLAINS    MOCLDY    61  54  77 SE9       30.07S

$$

IAZ060-094-KSZ022-034>040-054-083-096-NEZ052-066-093-210900-
...KANSAS...SOUTHEAST NEBRASKA AND IOWA...

CITY           SKY/WX    TMP DP  RH WIND       PRES   REMARKS
TOPEKA         MOCLDY    68  61  78 S20G31    29.78S
MANHATTAN      PTCLDY    68  61  78 S20G31    29.71S
EMPORIA        CLEAR     63  58  83 S23G31    29.79S
CHANUTE        MOCLDY    65  58  78 S17G28    29.86F
WICHITA        MOCLDY    68  63  84 S24G35    29.75F
OMAHA          LGT RAIN  65  59  81 S18G25    29.65F
LINCOLN        CLOUDY    69  60  73 S25G36    29.60F
FALLS CITY     MOCLDY    66  59  78 S18G29    29.72F
LAMONI         LGT RAIN  63  56  78 S14G24    29.82F
DES MOINES     PTCLDY    64  55  72 S18       29.79F

$$





USA.gov is the U.S. government's official web portal to all federal, state and local government web resources and services.